DateTimeUTC,F1_A11,F1_S11,BsB_S11,BsG_S11,BsR_S11,BbsB_S11,BbsG_S11,BbsR_S11,BaB_A11,BaG_A11,BaR_A11,Tu_S11,T_S11,Uu_S11,U_S11,P_S11,T1_A11
2021-11-24T02:00:00Z,00000200,21000000,,,,,,,-000.39,-000.03,0000.05,18.1,25.1,,00.0,0645.4,30.8
2021-11-24T02:01:00Z,00000200,21000000,,,,,,,0000.55,0000.07,0000.05,18.1,25.1,,00.0,0645.4,30.8
2021-11-24T02:02:00Z,00000200,21000000,,,,,,,0000.03,0000.33,0000.05,18.1,25.1,,00.0,0645.3,30.8
2021-11-24T02:03:00Z,00000200,61000000,,,,,,,0000.07,-000.27,0000.12,18.1,25.1,,00.0,0645.3,30.8
2021-11-24T02:04:00Z,00000200,41000000,0000.75,0000.09,0000.24,0000.38,0000.21,0000.05,0000.14,0000.30,0000.13,18.4,25.0,,00.0,0646.2,30.8
2021-11-24T02:05:00Z,00000200,01000000,0000.58,0000.40,-000.10,-000.43,0000.21,-000.24,0000.15,0000.15,-000.13,18.5,25.0,,00.0,0646.3,30.8
2021-11-24T02:06:00Z,00000200,01000000,0000.53,0000.54,0000.11,0000.05,0000.10,0000.07,-000.04,-000.14,0000.01,18.4,25.0,,00.0,0646.3,30.8
2021-11-24T02:07:00Z,00000200,01000000,0000.33,-000.04,0000.27,0000.22,0000.26,0000.17,-000.09,0000.18,0000.18,18.4,24.9,,00.0,0646.3,30.8
2021-11-24T02:08:00Z,00000200,01000000,0001.34,-000.08,0000.14,0000.81,-000.08,0000.27,0000.53,0000.20,0000.20,18.4,24.9,,00.0,0646.3,30.8
2021-11-24T02:09:00Z,00000200,01000000,0000.40,0000.21,0000.18,-000.35,0000.39,-000.01,0000.25,0000.07,-000.09,18.4,24.9,,00.0,0646.3,30.8
2021-11-24T02:10:00Z,00000200,01000000,0000.97,0000.39,0000.20,0000.35,-000.11,0000.16,0000.26,0000.66,0000.56,18.4,24.9,,00.0,0646.2,30.8
2021-11-24T02:11:00Z,00000200,01000000,0000.33,0000.24,0000.16,0000.24,-000.30,0000.23,0000.46,0000.23,0000.26,18.4,24.9,,00.0,0646.1,30.8
2021-11-24T02:12:00Z,00000200,01000000,0000.84,0000.22,0000.29,0000.03,0000.34,0000.16,0000.14,0000.21,0000.11,18.4,24.8,,00.0,0646.1,30.8
2021-11-24T02:13:00Z,00000200,01000000,-000.10,0000.26,0000.34,0000.34,0000.01,0000.22,0000.43,0000.43,0000.25,18.4,24.8,,00.0,0646.1,30.8
2021-11-24T02:14:00Z,00000200,01000000,0000.77,0000.19,0000.10,0000.31,0000.18,-000.01,0000.02,0000.01,0000.20,18.4,24.8,,00.0,0646.1,30.7
2021-11-24T02:15:00Z,00000200,01000000,0000.34,0000.17,0000.02,-000.21,0000.07,-000.11,-000.01,0000.15,-000.21,18.4,24.8,,00.0,0646.1,30.7
2021-11-24T02:16:00Z,00000200,01000000,0000.38,0000.30,-000.06,0000.32,0000.43,0000.05,0000.20,0000.07,0000.01,18.4,24.8,,00.0,0646.1,30.8
2021-11-24T02:17:00Z,00000200,01000000,0000.05,0000.30,0000.19,0000.38,-000.01,0000.10,0000.11,0000.10,0000.24,18.5,24.9,,00.0,0646.1,30.8
2021-11-24T02:18:00Z,00000200,01000000,0000.78,0000.38,0000.03,0000.18,0000.18,0000.02,0000.09,0000.05,-000.06,18.5,24.9,,00.0,0646.1,30.8
2021-11-24T02:19:00Z,00000200,01000000,0000.24,-000.03,0000.11,0000.69,0000.22,-000.06,0000.17,0000.18,-000.09,18.5,24.9,,00.0,0646.1,30.8
2021-11-24T02:20:00Z,00000200,01000000,-000.06,0000.60,-000.11,-000.01,-000.10,-000.34,0000.14,0000.14,0000.31,18.5,24.9,,00.0,0646.1,30.8
2021-11-24T02:21:00Z,00000200,01000000,0000.28,0000.23,-000.18,0000.47,-000.04,-000.18,-000.29,-000.10,0000.07,18.5,24.9,,00.0,0646.1,30.8
2021-11-24T02:22:00Z,00000200,01000000,0000.19,0000.24,-000.03,-000.24,-000.11,-000.00,0000.16,-000.00,-000.38,18.5,24.9,,00.0,0646.0,30.8
2021-11-24T02:23:00Z,00000200,01000000,-000.06,0000.24,0000.10,-000.24,-000.02,0000.22,0000.69,0000.51,0000.55,18.4,24.8,,00.0,0645.9,30.8
2021-11-24T02:24:00Z,00000200,01000000,-000.05,0000.13,-000.04,0000.23,0000.55,0000.17,0000.40,0000.33,0000.40,18.4,24.8,,00.0,0645.9,30.7
2021-11-24T02:25:00Z,00000200,01000000,0001.12,0000.51,-000.20,0000.47,-000.20,-000.32,-000.23,0000.22,0000.33,18.4,24.8,,00.0,0645.8,30.7
2021-11-24T02:26:00Z,00000200,01000000,0000.47,0000.29,0000.12,0000.72,0000.01,-000.02,0000.49,0000.14,0000.29,18.4,24.8,,00.0,0645.7,30.8
2021-11-24T02:27:00Z,00000200,01000000,0000.11,0000.31,0000.14,-000.21,-000.08,0000.46,0000.52,0000.36,-000.25,18.4,24.8,,00.0,0645.7,30.8
2021-11-24T02:28:00Z,00000200,01000000,0000.13,-000.13,0000.51,0000.07,0000.01,0000.09,-000.03,0000.20,0000.47,18.4,24.8,,00.0,0645.7,30.8
2021-11-24T02:29:00Z,00000200,01000000,0000.11,0000.33,0000.07,-000.23,-000.02,-000.01,0000.04,-000.10,-000.12,18.4,24.8,,00.0,0645.7,30.8
2021-11-24T02:30:00Z,00000200,01000000,0000.96,0000.49,0000.08,0000.64,0000.13,0000.23,0000.30,0000.28,0000.25,18.4,24.8,,00.0,0645.7,30.8
2021-11-24T02:31:00Z,00000200,01000000,0000.39,0000.16,-000.08,0000.39,-000.32,0000.02,-000.12,0000.08,0000.09,18.5,24.8,,00.0,0645.7,30.8
2021-11-24T02:32:00Z,00000200,01000000,0001.09,0000.13,0000.06,0000.26,-000.16,-000.07,0000.34,0000.15,0000.24,18.5,24.8,,00.0,0645.6,30.8
2021-11-24T02:33:00Z,00000200,01000000,0000.38,0000.28,0000.51,0000.68,-000.03,0000.06,0000.22,0000.21,0000.04,18.5,24.8,,00.0,0645.6,30.8
2021-11-24T02:34:00Z,00000200,01000000,0001.03,0000.31,0000.02,0000.05,0000.08,0000.07,0000.05,-000.04,-000.26,18.5,24.8,,00.0,0645.7,30.8
2021-11-24T02:35:00Z,00000200,01000000,0000.76,0000.44,-000.07,0000.37,0000.02,-000.05,0000.36,0000.33,0000.15,18.5,24.8,,00.0,0645.7,30.8
2021-11-24T02:36:00Z,00000200,01000000,0000.74,0000.50,0000.25,0000.07,-000.02,-000.13,0000.21,0000.36,0000.54,18.5,24.8,,00.0,0645.6,30.8
2021-11-24T02:37:00Z,00000200,01000000,0000.43,0000.11,-000.03,0000.19,-000.05,0000.18,0000.17,0000.04,-000.12,18.5,24.8,,00.0,0645.6,30.8
2021-11-24T02:38:00Z,00000200,01000000,0001.01,0000.24,-000.06,0000.56,0000.11,0000.23,0000.47,0000.43,0000.13,18.5,24.8,,00.0,0645.6,30.8
2021-11-24T02:39:00Z,00000200,01000000,0000.27,0000.37,0000.21,0000.27,-000.05,0000.22,0000.23,-000.08,0000.29,18.6,24.8,,00.0,0645.7,30.8
2021-11-24T02:40:00Z,00000200,01000000,0000.91,0000.19,0000.08,0000.50,-000.08,0000.13,-000.43,-000.17,-000.13,18.6,24.8,,00.0,0645.7,30.8
2021-11-24T02:41:00Z,00000200,01000000,0000.34,-000.08,-000.02,0000.40,-000.02,-000.12,0000.57,0000.24,0000.39,18.6,24.9,,00.0,0645.7,30.8
2021-11-24T02:42:00Z,00000200,01000000,0001.25,0000.33,0000.18,-000.17,-000.26,0000.21,0000.31,0000.40,-000.10,18.6,24.9,,00.0,0645.7,30.8
2021-11-24T02:43:00Z,00000200,01000000,0001.06,0000.46,0000.19,0000.00,-000.11,0000.29,0000.04,0000.54,0000.16,18.6,24.9,,00.0,0645.6,30.8
2021-11-24T02:44:00Z,00000200,01000000,0001.22,0000.38,-000.03,0000.21,0000.22,-000.05,0000.29,-000.21,0000.61,18.6,24.9,,00.0,0645.5,30.8
2021-11-24T02:45:00Z,00000200,01000000,0000.31,0000.69,0000.30,-000.10,0000.13,0000.27,0000.57,0000.96,0000.31,18.6,24.9,,00.0,0645.5,30.8
2021-11-24T02:46:00Z,00000200,01000000,0000.98,0000.41,0000.13,-000.19,0000.27,0000.41,0000.09,-000.10,0000.48,18.6,24.9,,00.0,0645.5,30.8
2021-11-24T02:47:00Z,00000200,01000000,0001.65,0000.14,0000.24,0000.05,0000.12,0000.20,0000.13,-000.18,-000.43,18.6,24.9,,00.0,0645.6,30.8
2021-11-24T02:48:00Z,00000200,01000000,0000.93,0000.58,0000.24,-000.18,0000.37,0000.18,-000.13,0000.00,0000.03,18.7,24.9,,00.0,0645.6,30.8
2021-11-24T02:49:00Z,00000200,01000000,0001.18,0000.46,0000.27,-000.05,0000.04,0000.24,0000.26,0000.46,0000.27,18.7,24.9,,00.0,0645.6,30.8
2021-11-24T02:50:00Z,00000200,01000000,0000.88,0000.21,0000.06,-000.34,0000.13,-000.01,0000.30,-000.05,0000.19,18.7,24.9,,00.0,0645.6,30.8
2021-11-24T02:51:00Z,00000200,01000000,0001.12,0000.12,0000.18,0000.14,-000.11,0000.11,0000.03,0000.54,0000.31,18.7,25.0,,00.0,0645.6,30.8
2021-11-24T02:52:00Z,00000200,01000000,0000.06,0000.12,-000.02,-000.05,0000.03,0000.17,0000.11,-000.66,-000.67,18.7,25.0,,00.0,0645.6,30.8
2021-11-24T02:53:00Z,00000200,01000000,0000.86,0000.33,0000.16,-000.10,0000.11,-000.07,-000.02,0000.46,0000.27,18.7,25.0,,00.0,0645.6,30.8
2021-11-24T02:54:00Z,00000200,01000000,-000.36,0000.42,-000.02,0000.17,-000.04,-000.01,0000.37,0000.34,0000.18,18.7,25.0,,00.0,0645.6,30.8
2021-11-24T02:55:00Z,00000200,01000000,0000.01,0000.51,0000.28,0000.41,-000.15,-000.21,0000.10,-000.07,-000.16,18.7,25.0,,00.0,0645.7,30.8
2021-11-24T02:56:00Z,00000200,01000000,0000.65,0000.40,0000.20,0000.03,-000.00,0000.01,0000.05,-000.08,0000.19,18.7,25.0,,00.0,0645.6,30.8
2021-11-24T02:57:00Z,00000200,41000000,,,,,,,-000.02,0000.25,0000.13,18.8,25.0,,00.0,0645.6,30.8
2021-11-24T02:58:00Z,00000200,61000000,,,,,,,-000.06,-000.31,-000.11,18.4,25.1,,00.0,0644.7,30.8
2021-11-24T02:59:00Z,00000200,21000000,,,,,,,-000.05,-000.07,-000.06,18.4,25.2,,00.0,0644.7,30.8
